| time (UTC) | temp F | wind direction | speed MPH | gust MPH | rain 1hr in | rain 24hr in | rain mn in | humidity % | barometer mb |
| 20260505051355 | 67 | 107 | 0.0 | 0.0 | 0.00 | 0.00 | 0.00 | 87 | 1009.8 |
| 20260505050853 | 67 | 86 | 0.0 | 0.0 | 0.00 | 0.00 | 0.00 | 87 | 1009.8 |
| 20260505050351 | 67 | 46 | 0.0 | 0.0 | 0.00 | 0.00 | 0.00 | 87 | 1009.8 |
| 20260505041319 | 66 | 39 | 0.0 | 0.0 | 0.00 | 0.00 | 0.00 | 88 | 1009.9 |
| 20260505040815 | 66 | 35 | 0.0 | 0.0 | 0.00 | 0.00 | 0.00 | 88 | 1009.7 |
| 20260505040313 | 66 | 34 | 0.0 | 0.0 | 0.00 | 0.00 | 0.00 | 88 | 1010.1 |
| 20260505035810 | 66 | 39 | 0.0 | 0.0 | 0.00 | 0.00 | 0.00 | 88 | 1010.1 |
| 20260505035305 | 66 | 34 | 0.0 | 0.0 | 0.00 | 0.00 | 0.00 | 88 | 1010.0 |
| 20260505034803 | 66 | 34 | 0.0 | 0.0 | 0.00 | 0.00 | 0.00 | 88 | 1009.9 |
| 20260505034259 | 66 | 34 | 0.0 | 0.0 | 0.00 | 0.00 | 0.00 | 87 | 1009.9 |
| 20260505033756 | 66 | 33 | 0.0 | 0.0 | 0.00 | 0.00 | 0.00 | 87 | 1009.9 |
| 20260505033254 | 66 | 33 | 0.0 | 0.0 | 0.00 | 0.00 | 0.00 | 87 | 1010.0 |
| 20260505032752 | 66 | 32 | 0.0 | 0.0 | 0.00 | 0.00 | 0.00 | 86 | 1010.0 |
| 20260505032247 | 67 | 32 | 0.0 | 0.0 | 0.00 | 0.00 | 0.00 | 86 | 1009.9 |
| 20260505031745 | 67 | 32 | 0.0 | 0.0 | 0.00 | 0.00 | 0.00 | 85 | 1009.8 |
| 20260505031241 | 67 | 33 | 0.0 | 0.0 | 0.00 | 0.00 | 0.00 | 85 | 1009.8 |
| 20260505030738 | 67 | 37 | 0.0 | 0.0 | 0.00 | 0.00 | 0.00 | 85 | 1009.7 |
| 20260505030234 | 67 | 30 | 0.0 | 0.0 | 0.00 | 0.00 | 0.00 | 84 | 1009.5 |
| 20260505025730 | 68 | 27 | 0.0 | 0.0 | 0.00 | 0.00 | 0.00 | 84 | 1009.3 |
| 20260505025228 | 68 | 24 | 0.0 | 0.0 | 0.00 | 0.00 | 0.00 | 83 | 1009.3 |
| 20260505024726 | 68 | 34 | 0.0 | 0.0 | 0.00 | 0.00 | 0.00 | 82 | 1009.3 |
| 20260505024223 | 68 | 21 | 0.0 | 0.0 | 0.00 | 0.00 | 0.00 | 82 | 1009.4 |
| 20260505023721 | 68 | 29 | 0.0 | 0.0 | 0.00 | 0.00 | 0.00 | 81 | 1009.2 |
| 20260505023218 | 68 | 47 | 0.0 | 0.0 | 0.00 | 0.00 | 0.00 | 82 | 1008.9 |
| 20260505022715 | 68 | 12 | 0.0 | 0.0 | 0.00 | 0.00 | 0.00 | 82 | 1009.1 |
| 20260505022212 | 68 | 15 | 0.0 | 0.0 | 0.00 | 0.00 | 0.00 | 82 | 1009.1 |
| 20260505021709 | 68 | 44 | 0.0 | 0.0 | 0.00 | 0.00 | 0.00 | 82 | 1009.1 |
| 20260505021206 | 68 | 68 | 0.0 | 0.0 | 0.00 | 0.00 | 0.00 | 82 | 1009.1 |
| 20260505020701 | 68 | 13 | 0.0 | 0.0 | 0.00 | 0.00 | 0.00 | 82 | 1009.0 |
| 20260505020157 | 68 | 13 | 0.0 | 0.0 | 0.00 | 0.00 | 0.00 | 81 | 1009.0 |
| 20260505015655 | 68 | 13 | 0.0 | 0.0 | 0.00 | 0.00 | 0.00 | 81 | 1008.9 |
| 20260505015151 | 69 | 13 | 0.0 | 0.0 | 0.00 | 0.00 | 0.00 | 81 | 1009.0 |
| 20260505014648 | 69 | 12 | 0.0 | 0.0 | 0.00 | 0.00 | 0.00 | 80 | 1008.9 |
| 20260505014145 | 69 | 12 | 0.0 | 0.0 | 0.00 | 0.00 | 0.00 | 80 | 1008.7 |
| 20260505013642 | 69 | 12 | 0.0 | 0.0 | 0.00 | 0.00 | 0.00 | 79 | 1008.8 |
| 20260505013139 | 69 | 8 | 0.0 | 0.0 | 0.00 | 0.00 | 0.00 | 78 | 1008.5 |
| 20260505012638 | 70 | 38 | 0.0 | 0.0 | 0.00 | 0.00 | 0.00 | 78 | 1008.6 |
| 20260505012134 | 70 | 38 | 0.0 | 0.0 | 0.00 | 0.00 | 0.00 | 77 | 1008.4 |
| 20260505011630 | 70 | 38 | 0.0 | 0.0 | 0.00 | 0.00 | 0.00 | 76 | 1008.5 |
| 20260505011127 | 71 | 38 | 0.0 | 0.0 | 0.00 | 0.00 | 0.00 | 75 | 1008.5 |
| 20260505010622 | 71 | 38 | 0.0 | 0.0 | 0.00 | 0.00 | 0.00 | 74 | 1008.6 |
| 20260505010119 | 72 | 38 | 0.0 | 0.0 | 0.00 | 0.00 | 0.00 | 72 | 1008.7 |
| 20260505005615 | 73 | 39 | 0.0 | 0.0 | 0.00 | 0.00 | 0.00 | 71 | 1008.9 |
| 20260505005112 | 73 | 40 | 0.0 | 0.0 | 0.00 | 0.00 | 0.00 | 69 | 1008.7 |
| 20260505004609 | 74 | 36 | 0.0 | 0.0 | 0.00 | 0.00 | 0.00 | 68 | 1008.6 |
| 20260505004106 | 74 | 42 | 0.0 | 1.0 | 0.00 | 0.00 | 0.00 | 67 | 1008.7 |
| 20260505003603 | 74 | 184 | 1.0 | 1.0 | 0.00 | 0.00 | 0.00 | 66 | 1008.9 |
| 20260505003101 | 75 | 70 | 0.0 | 1.0 | 0.00 | 0.00 | 0.00 | 67 | 1009.0 |
| 20260505002556 | 76 | 46 | 0.0 | 0.0 | 0.00 | 0.00 | 0.00 | 64 | 1008.7 |
| 20260505002055 | 76 | 48 | 0.0 | 1.0 | 0.00 | 0.00 | 0.00 | 63 | 1008.9 |
| 20260505001552 | 77 | 150 | 0.0 | 1.0 | 0.00 | 0.00 | 0.00 | 62 | 1008.7 |
| 20260505001049 | 77 | 58 | 0.0 | 0.0 | 0.00 | 0.00 | 0.00 | 62 | 1008.7 |
| 20260505000546 | 77 | 166 | 0.0 | 1.0 | 0.00 | 0.00 | 0.00 | 60 | 1008.8 |
| 20260505000044 | 77 | 131 | 1.0 | 1.0 | 0.00 | 0.00 | 0.00 | 61 | 1008.9 |
| 20260504235540 | 78 | 112 | 1.0 | 1.0 | 0.00 | 0.00 | 0.00 | 60 | 1008.8 |
| 20260504235037 | 78 | 338 | 0.0 | 0.0 | 0.00 | 0.00 | 0.00 | 60 | 1008.5 |
| 20260504234534 | 78 | 24 | 0.0 | 1.0 | 0.00 | 0.00 | 0.00 | 59 | 1008.7 |
| 20260504234031 | 78 | 174 | 1.0 | 1.0 | 0.00 | 0.00 | 0.00 | 58 | 1008.7 |
| 20260504233526 | 79 | 105 | 2.0 | 2.0 | 0.00 | 0.00 | 0.00 | 57 | 1008.7 |
| 20260504233023 | 79 | 160 | 1.0 | 1.0 | 0.00 | 0.00 | 0.00 | 56 | 1009.0 |
| 20260504232520 | 79 | 142 | 2.0 | 2.0 | 0.00 | 0.00 | 0.00 | 55 | 1009.1 |
| 20260504232018 | 79 | 157 | 2.0 | 2.0 | 0.00 | 0.00 | 0.00 | 56 | 1009.1 |
| 20260504231514 | 79 | 70 | 1.0 | 1.0 | 0.00 | 0.00 | 0.00 | 55 | 1009.1 |
| 20260504231011 | 79 | 185 | 1.0 | 2.0 | 0.00 | 0.00 | 0.00 | 56 | 1009.4 |
| 20260504230507 | 79 | 83 | 2.0 | 2.0 | 0.00 | 0.00 | 0.00 | 55 | 1009.6 |
| 20260504230006 | 80 | 124 | 3.0 | 3.0 | 0.00 | 0.00 | 0.00 | 54 | 1009.7 |
| 20260504225503 | 80 | 166 | 2.0 | 2.0 | 0.00 | 0.00 | 0.00 | 54 | 1009.6 |
| 20260504225000 | 80 | 37 | 0.0 | 0.0 | 0.00 | 0.00 | 0.00 | 54 | 1009.7 |
| 20260504224456 | 80 | 144 | 1.0 | 1.0 | 0.00 | 0.00 | 0.00 | 53 | 1009.8 |
| 20260504223953 | 79 | 165 | 1.0 | 1.0 | 0.00 | 0.00 | 0.00 | 54 | 1009.8 |
| 20260504223450 | 79 | 148 | 1.0 | 1.0 | 0.00 | 0.00 | 0.00 | 54 | 1009.7 |
| 20260504222945 | 80 | 152 | 1.0 | 2.0 | 0.00 | 0.00 | 0.00 | 53 | 1009.6 |
| 20260504222443 | 80 | 138 | 1.0 | 1.0 | 0.00 | 0.00 | 0.00 | 50 | 1009.9 |
| 20260504221940 | 80 | 225 | 1.0 | 2.0 | 0.00 | 0.00 | 0.00 | 51 | 1010.0 |
| 20260504221437 | 80 | 143 | 1.0 | 1.0 | 0.00 | 0.00 | 0.00 | 51 | 1010.1 |
| 20260504220934 | 81 | 244 | 1.0 | 2.0 | 0.00 | 0.00 | 0.00 | 50 | 1010.1 |
| 20260504220431 | 80 | 200 | 2.0 | 3.0 | 0.00 | 0.00 | 0.00 | 49 | 1009.9 |
| 20260504215928 | 80 | 83 | 1.0 | 1.0 | 0.00 | 0.00 | 0.00 | 49 | 1010.1 |
| 20260504215425 | 81 | 11 | 0.0 | 1.0 | 0.00 | 0.00 | 0.00 | 50 | 1010.5 |
| 20260504214921 | 81 | 111 | 1.0 | 2.0 | 0.00 | 0.00 | 0.00 | 48 | 1010.4 |
| 20260504214418 | 80 | 321 | 2.0 | 3.0 | 0.00 | 0.00 | 0.00 | 48 | 1010.6 |
| 20260504213914 | 80 | 134 | 2.0 | 2.0 | 0.00 | 0.00 | 0.00 | 48 | 1010.5 |
| 20260504213410 | 80 | 162 | 2.0 | 3.0 | 0.00 | 0.00 | 0.00 | 46 | 1010.6 |
| 20260504212908 | 80 | 182 | 3.0 | 3.0 | 0.00 | 0.00 | 0.00 | 48 | 1010.7 |
| 20260504212404 | 80 | 145 | 1.0 | 1.0 | 0.00 | 0.00 | 0.00 | 46 | 1010.8 |
| 20260504211902 | 80 | 200 | 1.0 | 1.0 | 0.00 | 0.00 | 0.00 | 49 | 1010.8 |
| 20260504211357 | 80 | 234 | 1.0 | 1.0 | 0.00 | 0.00 | 0.00 | 48 | 1010.9 |
| 20260504210855 | 79 | 74 | 2.0 | 2.0 | 0.00 | 0.00 | 0.00 | 48 | 1010.8 |
| 20260504210352 | 79 | 28 | 1.0 | 2.0 | 0.00 | 0.00 | 0.00 | 48 | 1011.0 |
| 20260504205849 | 79 | 251 | 1.0 | 1.0 | 0.00 | 0.00 | 0.00 | 48 | 1011.0 |
| 20260504205347 | 79 | 109 | 2.0 | 2.0 | 0.00 | 0.00 | 0.00 | 46 | 1011.3 |
| 20260504204845 | 80 | 147 | 2.0 | 2.0 | 0.00 | 0.00 | 0.00 | 48 | 1011.5 |
| 20260504204343 | 80 | 216 | 2.0 | 2.0 | 0.00 | 0.00 | 0.00 | 48 | 1011.1 |
| 20260504203842 | 80 | 27 | 1.0 | 1.0 | 0.00 | 0.00 | 0.00 | 49 | 1011.4 |
| 20260504203338 | 80 | 136 | 3.0 | 3.0 | 0.00 | 0.00 | 0.00 | 46 | 1011.4 |
| 20260504202834 | 80 | 181 | 2.0 | 2.0 | 0.00 | 0.00 | 0.00 | 45 | 1011.7 |
| 20260504202332 | 80 | 123 | 1.0 | 2.0 | 0.00 | 0.00 | 0.00 | 44 | 1011.9 |
| 20260504201828 | 80 | 1 | 1.0 | 2.0 | 0.00 | 0.00 | 0.00 | 46 | 1012.1 |
| 20260504201326 | 80 | 178 | 1.0 | 2.0 | 0.00 | 0.00 | 0.00 | 45 | 1011.9 |
| 20260504200823 | 80 | 96 | 1.0 | 2.0 | 0.00 | 0.00 | 0.00 | 45 | 1012.0 |
| 20260504200319 | 81 | 182 | 3.0 | 3.0 | 0.00 | 0.00 | 0.00 | 43 | 1012.0 |
| 20260504195815 | 82 | 234 | 1.0 | 2.0 | 0.00 | 0.00 | 0.00 | 45 | 1012.2 |
| 20260504195311 | 82 | 115 | 3.0 | 3.0 | 0.00 | 0.00 | 0.00 | 46 | 1012.3 |
| 20260504194808 | 82 | 286 | 1.0 | 1.0 | 0.00 | 0.00 | 0.00 | 42 | 1012.3 |
| 20260504194304 | 82 | 333 | 0.0 | 0.0 | 0.00 | 0.00 | 0.00 | 46 | 1012.6 |
| 20260504193801 | 81 | 22 | 0.0 | 0.0 | 0.00 | 0.00 | 0.00 | 47 | 1012.4 |
| 20260504193258 | 81 | 203 | 2.0 | 2.0 | 0.00 | 0.00 | 0.00 | 44 | 1012.8 |
| 20260504192757 | 81 | 195 | 2.0 | 2.0 | 0.00 | 0.00 | 0.00 | 44 | 1013.0 |
| 20260504192254 | 81 | 165 | 1.0 | 1.0 | 0.00 | 0.00 | 0.00 | 46 | 1012.5 |
| 20260504191753 | 81 | 174 | 2.0 | 3.0 | 0.00 | 0.00 | 0.00 | 44 | 1013.1 |
| 20260504191249 | 81 | 320 | 1.0 | 1.0 | 0.00 | 0.00 | 0.00 | 46 | 1013.1 |
| 20260504190745 | 81 | 188 | 2.0 | 2.0 | 0.00 | 0.00 | 0.00 | 47 | 1013.1 |
| 20260504190242 | 81 | 274 | 1.0 | 1.0 | 0.00 | 0.00 | 0.00 | 44 | 1013.0 |
| 20260504185738 | 81 | 139 | 2.0 | 3.0 | 0.00 | 0.00 | 0.00 | 45 | 1013.1 |
| 20260504185235 | 80 | 178 | 1.0 | 1.0 | 0.00 | 0.00 | 0.00 | 48 | 1013.2 |
| 20260504184731 | 80 | 18 | 1.0 | 1.0 | 0.00 | 0.00 | 0.00 | 49 | 1013.4 |
| 20260504184227 | 80 | 64 | 1.0 | 1.0 | 0.00 | 0.00 | 0.00 | 46 | 1013.2 |
| 20260504183723 | 81 | 187 | 2.0 | 2.0 | 0.00 | 0.00 | 0.00 | 46 | 1013.5 |
| 20260504183220 | 80 | 219 | 3.0 | 3.0 | 0.00 | 0.00 | 0.00 | 44 | 1013.7 |
| 20260504182718 | 80 | 27 | 0.0 | 0.0 | 0.00 | 0.00 | 0.00 | 48 | 1013.7 |
| 20260504182215 | 80 | 119 | 2.0 | 2.0 | 0.00 | 0.00 | 0.00 | 45 | 1013.8 |
| 20260504181713 | 80 | 153 | 1.0 | 2.0 | 0.00 | 0.00 | 0.00 | 46 | 1013.8 |
| 20260504181210 | 79 | 170 | 4.0 | 6.0 | 0.00 | 0.00 | 0.00 | 46 | 1013.9 |
| 20260504180709 | 79 | 207 | 3.0 | 3.0 | 0.00 | 0.00 | 0.00 | 47 | 1014.1 |
| 20260504180207 | 79 | 354 | 1.0 | 1.0 | 0.00 | 0.00 | 0.00 | 47 | 1013.8 |
| 20260504175704 | 79 | 359 | 0.0 | 1.0 | 0.00 | 0.00 | 0.00 | 48 | 1014.0 |
| 20260504175201 | 78 | 150 | 3.0 | 5.0 | 0.00 | 0.00 | 0.00 | 46 | 1014.2 |
| 20260504174659 | 78 | 135 | 3.0 | 3.0 | 0.00 | 0.00 | 0.00 | 48 | 1014.2 |
| 20260504174156 | 78 | 89 | 2.0 | 2.0 | 0.00 | 0.00 | 0.00 | 48 | 1014.1 |
| 20260504173652 | 79 | 141 | 2.0 | 2.0 | 0.00 | 0.00 | 0.00 | 48 | 1014.2 |
| 20260504173150 | 78 | 323 | 0.0 | 0.0 | 0.00 | 0.00 | 0.00 | 52 | 1013.8 |
| 20260504172646 | 78 | 135 | 1.0 | 2.0 | 0.00 | 0.00 | 0.00 | 49 | 1014.5 |
| 20260504172143 | 78 | 181 | 4.0 | 5.0 | 0.00 | 0.00 | 0.00 | 47 | 1014.2 |
| 20260504171639 | 78 | 159 | 3.0 | 5.0 | 0.00 | 0.00 | 0.00 | 49 | 1014.3 |
| 20260504171137 | 77 | 153 | 1.0 | 2.0 | 0.00 | 0.00 | 0.00 | 50 | 1014.5 |
| 20260504170633 | 78 | 174 | 1.0 | 2.0 | 0.00 | 0.00 | 0.00 | 50 | 1014.5 |
| 20260504170131 | 78 | 155 | 2.0 | 2.0 | 0.00 | 0.00 | 0.00 | 51 | 1014.8 |
| 20260504151016 | 71 | 152 | 2.0 | 2.0 | 0.00 | 0.00 | 0.00 | 65 | 1015.4 |
| 20260504150514 | 71 | 175 | 3.0 | 3.0 | 0.00 | 0.00 | 0.00 | 67 | 1015.5 |
| 20260504140939 | 66 | 192 | 1.0 | 2.0 | 0.00 | 0.00 | 0.00 | 73 | 1015.5 |
| 20260504140436 | 66 | 158 | 1.0 | 1.0 | 0.00 | 0.00 | 0.00 | 77 | 1015.4 |
| 20260504130400 | 57 | 55 | 0.0 | 0.0 | 0.00 | 0.00 | 0.00 | 99 | 1015.7 |
| 20260504110248 | 50 | 38 | 0.0 | 0.0 | 0.00 | 0.00 | 0.00 | 99 | 1015.3 |
| 20260504100211 | 51 | 48 | 0.0 | 0.0 | 0.00 | 0.00 | 0.00 | 99 | 1015.5 |
| 20260504090134 | 52 | 48 | 0.0 | 0.0 | 0.00 | 0.00 | 0.00 | 99 | 1015.2 |
| 20260504081604 | 53 | 48 | 0.0 | 0.0 | 0.00 | 0.00 | 0.00 | 99 | 1015.3 |
| 20260504081100 | 53 | 48 | 0.0 | 0.0 | 0.00 | 0.00 | 0.00 | 99 | 1015.3 |
| 20260504080557 | 53 | 48 | 0.0 | 0.0 | 0.00 | 0.00 | 0.00 | 99 | 1015.5 |